Starlink 33551

operational
NORAD ID: 62110 Int'l Des: 2024-220 Owner: SPXS Country: US Constellation: starlink
LEOCIRCULAR

Über Starlink 33551

Beschreibung wird geladen...

Live-Position

3D-Globus wird geladen...

Nächste Überflüge

Höhenverlauf

Altitude vs Time

uPlot chart will show altitude changes over time

Zweizeiliger Elementsatz

1 62110U 24220Y 25307.97029404 .00040155 00000-0 14594-2 0 9992
2 62110 42.9969 195.5712 0000491 112.4427 247.6476 15.27612807 53964
Epoch: 3. Nov. 2025 • Age: 22 hours

Aktueller Status

Höhe 496.4 km
Geschwindigkeit 7.62 km/s
Subsatellitenpunkt -43.11°S, 106.25°E
Startdatum 25. Nov. 2024
Alter 0.9 years
Typ internet

Technische Details

Klassifizierung Payload
Masse 530.00 kg
Trockenmasse 500.00 kg
Gesamtmasse 530.00 kg
Länge 0.30 m
Durchmesser 4.10 m
Spannweite 29.00 m
Form Box + pan
Hersteller SPXS
Bus-Typ Starlink V2MO
Phasenstatus In Orbit
Besitzer/Staat SPXS/US

Große Konstellationen

Loading constellations...